Lid_Strength_Index
4 6 6 7 14 15 16 14 12 12 11 9 9 8 9 9 9 11 7 7 6 6 5 4 -0 0 1 2 1 0 -0 -1 -1 -1 -1 -1 -1 -1 -1 -1 -1 -1 -1 -1 -2 -1 -1 -1 -1
5 5 7 10 16 19 18 13 12 11 10 10 8 8 10 9 6 7 7 6 6 6 4 3 0 1 0 2 2 1 0 -1 -1 -1 -1 -1 -1 -1 -1 -1 -1 -1 -1 -1 -2 -2 -1 -1 -1
7 6 11 14 17 18 17 14 13 10 9 10 11 9 10 9 7 8 7 6 6 7 4 2 0 1 2 1 3 3 2 1 0 -1 -1 -1 -1 -1 -1 -1 -1 -1 -1 -1 -1 -2 -1 -1 -1
9 9 11 16 16 15 14 12 11 12 9 9 10 11 9 8 8 8 7 7 8 8 7 1 -0 1 3 2 1 1 4 3 2 1 -0 -1 -1 -1 -1 -1 -1 -1 -1 -1 -1 -1 -1 -1 -1
10 11 15 17 16 14 12 11 11 11 11 10 10 11 9 8 8 9 10 9 9 9 7 6 -1 0 2 3 3 2 2 4 4 3 1 -0 -1 -1 -1 -1 -1 -1 -1 -1 -1 -1 -1 -1 -1
14 13 18 18 15 13 12 10 10 11 12 11 12 12 11 8 9 10 10 11 10 10 8 6 3 0 1 2 3 3 2 2 3 4 3 1 -0 -1 -1 -1 -1 -1 -1 -1 -1 -1 -1 -1 -1
15 16 18 17 15 14 11 10 11 12 13 13 11 13 10 10 9 10 11 11 10 9 9 9 8 5 3 2 3 2 2 2 2 3 4 3 1 -0 -0 -0 -0 -1 -1 -1 -1 -0 -0 -1 -1
15 16 18 18 16 16 12 12 12 13 13 11 10 13 13 11 10 11 11 11 11 9 9 9 9 8 7 7 2 2 2 1 2 1 2 3 2 2 1 1 0 -0 -0 -0 -0 -0 -0 -1 -0
15 19 19 17 16 15 13 15 12 12 14 14 12 13 11 10 10 11 12 12 11 9 10 9 9 9 8 7 6 4 4 3 2 3 2 3 2 0 1 1 1 0 -0 -0 -0 -0 -0 0 1
17 20 18 14 14 15 14 16 15 15 14 14 14 12 11 11 10 11 11 13 12 11 10 9 9 9 9 7 8 7 7 7 6 4 3 2 3 2 -0 2 3 1 1 0 0 0 1 2 -0
16 18 15 14 13 13 15 15 15 17 17 14 15 13 11 12 12 12 11 11 12 11 11 10 10 9 9 9 8 8 7 9 8 6 5 2 3 3 1 -0 1 1 3 -0 0 0 0 0 0
18 15 15 14 14 15 15 14 15 16 15 13 12 12 11 11 11 11 11 11 11 11 11 10 10 10 10 9 9 9 8 8 9 8 6 4 3 3 4 2 0 1 0 0 -0 -0 -0 -0 0
17 16 15 15 15 15 14 15 16 16 14 12 11 10 10 10 10 9 9 9 10 10 10 10 10 10 9 9 9 9 8 8 8 9 8 6 5 4 2 5 2 1 0 1 0 0 0 0 1
16 16 16 15 15 14 14 15 13 13 11 11 10 10 10 9 9 9 9 9 9 9 9 9 8 8 9 9 9 9 9 8 7 8 8 7 6 4 3 5 6 2 0 1 0 0 1 1 1
16 19 17 16 15 15 12 16 14 10 9 10 11 10 9 8 8 8 8 8 8 8 8 7 7 7 8 9 9 9 9 8 8 7 7 6 6 5 3 3 5 5 0 1 1 0 1 1 1
19 19 22 17 14 13 11 17 12 9 10 10 10 11 10 8 7 6 6 6 7 6 7 7 6 7 8 8 8 8 8 9 8 8 7 7 7 6 4 4 4 5 2 1 1 1 1 1 1
20 22 20 18 13 12 11 14 10 8 8 9 9 9 8 8 7 7 6 6 6 6 7 7 7 7 7 8 8 8 8 8 9 8 8 7 7 6 6 4 2 2 2 1 1 1 1 2 2
21 21 19 17 13 11 12 12 10 8 8 8 8 8 9 8 7 6 6 6 6 7 7 7 7 7 7 8 8 9 8 8 8 9 8 7 6 6 6 6 5 4 2 3 1 2 1 2 2
17 18 17 14 10 10 11 11 10 8 9 10 9 9 9 9 8 6 6 6 6 7 7 7 7 7 8 9 10 10 10 9 8 9 8 7 7 6 7 8 8 5 3 3 2 2 2 2 5
17 17 17 14 11 11 12 13 10 10 10 9 10 11 10 9 8 7 7 7 7 8 7 7 7 7 7 8 9 9 10 10 9 8 8 7 7 6 6 7 8 7 4 3 3 2 3 5 5
18 16 15 14 12 11 12 15 13 11 10 9 8 9 9 9 10 9 8 8 8 8 8 7 7 7 7 7 8 9 9 10 11 10 9 8 8 7 6 6 5 6 7 6 3 2 3 5 7
19 12 12 13 14 19 13 21 15 12 12 10 10 10 9 9 9 9 9 9 10 9 9 8 7 7 7 7 8 9 10 12 11 11 9 9 8 8 7 7 7 7 6 3 2 2 3 5 7
17 11 12 12 15 18 16 18 17 12 13 11 10 10 9 9 9 10 10 9 9 9 10 9 9 9 8 8 8 8 10 10 10 11 11 9 9 8 7 7 8 8 6 3 1 3 3 5 7
11 13 13 16 22 27 18 16 18 14 12 11 11 11 10 10 10 10 10 10 10 11 11 11 10 10 9 9 9 9 10 10 11 11 11 10 9 9 8 7 8 8 7 2 1 1 3 4 5
19 20 23 27 28 28 15 19 17 12 11 11 12 11 10 10 11 11 12 12 12 12 12 12 12 12 11 11 10 10 9 10 11 11 11 12 10 10 9 8 8 8 7 4 1 1 3 3 4
18 18 22 24 25 21 15 26 15 11 9 9 10 11 11 12 12 13 13 13 14 13 13 13 13 13 12 12 12 11 10 10 10 10 11 11 11 10 9 9 8 7 5 2 1 1 2 3 3
20 23 15 18 28 26 21 16 12 10 12 12 12 11 13 13 13 14 14 14 15 14 14 14 13 13 13 13 13 12 11 11 11 10 10 11 11 10 9 9 9 8 8 3 1 2 3 3 5
13 10 18 22 24 31 25 21 20 16 17 13 14 14 14 15 15 14 15 14 14 14 14 14 14 14 13 13 13 13 12 12 11 10 10 10 10 10 10 9 9 9 9 4 2 2 3 3 5
18 21 16 18 19 24 29 25 18 21 20 18 16 13 16 17 17 15 15 15 16 16 16 16 15 15 15 14 14 14 13 12 10 11 10 9 10 9 10 9 9 10 9 4 3 3 4 5 5
16 20 18 18 23 26 26 22 20 21 16 18 14 13 14 15 16 16 17 17 17 18 17 17 17 17 16 16 15 14 13 13 12 12 11 9 9 8 9 9 9 9 8 4 3 4 4 5 8